Regional Weather Roundup
Issued by NWS

Home | Current Version | Previous Version | Graphics & Text | Print | Product List | Glossary On
Versions: 1 2 3 4 5 6 7 8 9 10 11 12 13 14 15 16 17 18 19 20 21 22 23 24 25 26 27 28 29 30 31 32 33 34 35 36 37 38 39 40 41 42 43 44 45 46 47 48 49 50
000
ASUS43 KTOP 270708
RWRKS

WEATHER ROUNDUP FOR KANSAS
NATIONAL WEATHER SERVICE GOODLAND KS
200 AM CDT FRI MAR 27 2015

NOTE:  "FAIR" INDICATES FEW OR NO CLOUDS BELOW 12,000 FEET WITH NO
SIGNIFICANT WEATHER AND/OR OBSTRUCTIONS TO VISIBILITY.

KSZ001>006-013>018-027>032-041>047-270800-
NORTHWEST KANSAS

CITY           SKY/WX    TMP DP  RH WIND       PRES   REMARKS
GOODLAND       CLOUDY    39  30  70 E7        30.18F
HAYS           CLOUDY    37  27  65 N14       30.20F WCI  29
HILL CITY      CLOUDY    36  30  79 NE10      30.23R WCI  28
RUSSELL        CLOUDY    36  33  89 N16       30.18R WCI  26
$$

KSZ061>065-074>080-084>089-270800-
SOUTHWEST KANSAS

CITY           SKY/WX    TMP DP  RH WIND       PRES   REMARKS
DODGE CITY     CLOUDY    45  28  51 N12       30.16S
ELKHART          N/A     44  28  53 W3          N/A
GARDEN CITY    CLOUDY    44  29  55 NE9       30.16S
GREAT BEND     CLOUDY    37  30  75 N15       30.20R WCI  28
LIBERAL        PTCLDY    43  28  56 NW7       30.17S
PRATT          CLOUDY    41  34  75 N20       30.16R
$$

KSZ066>073-081>083-090>101-270800-
SOUTHEAST KANSAS

CITY           SKY/WX    TMP DP  RH WIND       PRES   REMARKS
CHANUTE        CLOUDY    42  38  85 N13       30.12R
COFFEYVILLE    MOCLDY    43  36  76 NE10      30.10S
HUTCHINSON     CLOUDY    41  34  76 N14G23    30.15R
MEDICINE LODGE   N/A     48  33  56 N14G20    30.11R
NEWTON         CLOUDY    39  32  75 NE14G22   30.14R WCI  31
PARSONS        PTCLDY    42  37  82 VRB5      30.11F
WICHITA INTL   MOCLDY    44  37  76 NE21      30.09R
WICHITA JABRA  PTCLDY    41  37  86 NE15      30.10R
WICHITA MCCONL PTCLDY    43  38  82 NE18      30.09R
WINFIELD       PTCLDY    42  33  70 NE6       30.06R
$$

KSZ007>012-019>026-033>040-048>060-102>105-270800-
NORTHEAST KANSAS

CITY           SKY/WX    TMP DP  RH WIND       PRES   REMARKS
CONCORDIA      CLOUDY    34  31  88 NE14      30.21S WCI  25
EMPORIA        CLOUDY    38  36  92 NE12      30.14R WCI  30
LAWRENCE       CLOUDY    37  35  92 N7        30.17S
MANHATTAN      CLOUDY    37  34  89 N13       30.20R WCI  29
MARYSVILLE     CLOUDY    34  32  93 N8        30.21R
OLATHE IND     MIX PCPN  36  34  92 N7        30.16S
OLATHE EXE     LGT RAIN  38  36  92 N7        30.14S
SALINA         CLOUDY    38  33  82 NE18      30.19R WCI  28
TOPEKA BILLARD CLOUDY    37  35  92 N10       30.19R WCI  30
TOPEKA FORBES  CLOUDY    38  35  89 N12       30.16S WCI  30
$$



USA.gov is the U.S. government's official web portal to all federal, state and local government web resources and services.